Regional Weather Roundup
Issued by NWS Mobile, AL

Home | Current Version | Previous Version | Text Only | Print | Product List | Glossary On
Versions: 1 2 3 4 5 6 7 8 9 10 11 12 13 14 15 16 17 18 19 20 21 22 23 24 25 26 27 28
000
ASUS44 KMOB 261112
RWRMOB
REGIONAL WEATHER ROUNDUP
NATIONAL WEATHER SERVICE MOBILE AL
600 AM CDT WED APR 26 2017

NOTE: "FAIR" INDICATES FEW OR NO CLOUDS BELOW 12,000 FEET WITH NO
      SIGNIFICANT WEATHER AND/OR OBSTRUCTIONS TO VISIBILITY.

  * THESE STATIONS ARE PART OF THE UNIVERSITY OF SOUTH ALABAMA
    MESONET AND ARE NOT UNDER NWS OR FAA QUALITY CONTROL.

ALZ061>064-261200-
COASTAL ALABAMA

CITY           SKY/WX    TMP DP  RH WIND       PRES   REMARKS
MOBILE REG APT PTCLDY    61  57  87 SE6       29.75R
BROOKLEY FIELD PTCLDY    69  61  75 S7        29.75S
USA CAMPUS*      N/A     59  57  94 CALM      29.75R
DOG RIVER*       N/A     66  59  77 S5        30.42R


CITY           SKY/WX    TMP DP  RH WIND       PRES   REMARKS
GULF SHORES    MOCLDY    69  60  74 S10       29.76S

$$

ALZ051>060-261200-
INTERIOR SOUTHWEST AND SOUTH CENTRAL ALABAMA

CITY           SKY/WX    TMP DP  RH WIND       PRES   REMARKS
GREENVILLE     CLEAR     55  50  83 CALM      29.77R
EVERGREEN      CLEAR     52  50  93 CALM      29.78R
ATMORE*          N/A     57  55  94 SE5       29.79R
ANDALUSIA/OPP  CLEAR     56  52  86 CALM      29.78R
ANDALUSIA*       N/A     55  55 100 SE3       29.78R
FLORALA APT    CLEAR     56  53  90 CALM      29.80R
FLORALA*         N/A     54  54 100 CALM      30.44R

$$

FLZ001>006-261200-
WESTERN FLORIDA PANHANDLE

CITY           SKY/WX    TMP DP  RH WIND       PRES   REMARKS
PENSACOLA      PTCLDY    69  58  67 S10       29.77R
NAS PENSACOLA  PTCLDY    70  58  65 S10       29.76R
MILTON         PTCLDY    54  54 100 CALM      29.78R
WHTNG S FIELD  CLEAR     59  56  89 CALM      29.78R


CITY           SKY/WX    TMP DP  RH WIND       PRES   REMARKS
JAY*             N/A     57  55  94 E3        29.78R
DUKE FIELD     PTCLDY    54  53  95 CALM      29.77R
CRESTVIEW      CLEAR     51  50  96 CALM      29.79R
VALPARAISO     MOCLDY    70  59  67 S6        29.77R
DESTIN         PTCLDY    73  61  65 S8        29.78R

$$

MSZ076-079-261200-
INTERIOR SOUTHEAST MISSISSIPPI

CITY           SKY/WX    TMP DP  RH WIND       PRES   REMARKS
LEAKESVILLE*   NOT AVBL
AGRICOLA*        N/A     59  59 100 CALM      29.73R

$$

MARINE OBSERVATIONS

STATION/POSITION TIME  TEMP    WIND        PRES    WAVE
                       AIR SEA DIR/SP/G            HT/PER
                 (UTC) (F)     (DEG/KT/KT) (MB)    (FT/S)
PASCAGOULA       1048   71     170/ 17/ 21 1006.8R
PETIT BOIS ISLND 1048   70     180/ 15/ 17 1007.5R
GRAND BAY        0945   71     200/ 13     1007.0S
KATRINA CUT      1030   71     190/ 17     1006.8S
CEDAR POINT      1030   71     190/ 17     1006.8R
E DAUPHIN ISLAND 1000   71     190/ 16/ 17 1006.8S
MIDDLE BAY LIGHT 1030   71     180/ 18     1007.8R
USCG MOBILE BAY  1048   68 74  210/  5/  8 1007.7R
STATE DOCKS      1042   69 75              1006.9R
MEAHER PARK      1030   69     150/ 11     1007.5R
FORT MORGAN      1048   71     180/ 17/ 19   N/A
12 S ORANGE BCH  1050   71 73  180/ 16/ 19 1007.3R   3/ 4
PENSACOLA BAY    1042   71 72  200/  2/  6 1008.0R
64 S DAUPHIN ISL 1050   71     150/ 16/ 19 1007.1S   3/ 4
67 S FORT MORGAN 1030   70     180/ 16     1007.5S

$$

SELECTED LOCATIONS ACROSS THE REGION

CITY           SKY/WX    TMP DP  RH WIND       PRES   REMARKS
NEW ORLEANS    MOCLDY    71  62  73 S12G21    29.68R
GULFPORT       PTCLDY    70  61  73 S9        29.71S
PASCAGOULA AP  MOCLDY    69  58  67 S7        29.74R
PASCAGOULA*    NOT AVBL
HATTIESBURG    CLEAR     56  54  93 SE3       29.72S
LAUREL         CLEAR     57  54  88 S3        29.72S
MERIDIAN       PTCLDY    56  54  93 CALM      29.74R
JACKSON        CLEAR     59  57  93 SE9       29.69S
MONTGOMERY     CLEAR     58  53  84 CALM      29.79R
TROY           CLEAR     54  53  97 CALM      29.79R
ASHFORD*         N/A     55  55 100 SE3       29.78R
DOTHAN         CLEAR     57  57 100 S3        29.83R
PANAMA CITY    CLEAR     55  53  93 CALM      29.79R

$$





USA.gov is the U.S. government's official web portal to all federal, state and local government web resources and services.